FW5243 Weather Reports


Display with metric or nautical units.
time (UTC)temp
F
wind
direction
speed
MPH
gust
MPH
rain 1hr
in
rain 24hr
in
rain mn
in
humidity
%
barometer
mb
20220701170047 87 171 3.0 12.0 0.00 0.00 0.00 53 1017.2
20220701164548 87 213 4.0 12.0 0.00 0.00 0.00 53 1017.2
20220701163044 87 198 2.0 11.0 0.00 0.00 0.00 56 1017.3
20220701161541 85 227 3.0 9.0 0.00 0.00 0.00 55 1017.6
20220701160036 85 194 2.0 6.0 0.00 0.00 0.00 57 1017.7
20220701154533 84 190 1.0 4.0 0.00 0.00 0.00 58 1017.8
20220701153033 84 155 1.0 5.0 0.00 0.00 0.00 62 1018.1
20220701151530 84 201 1.0 6.0 0.00 0.00 0.00 62 1018.1
20220701150032 83 168 2.0 5.0 0.00 0.00 0.00 60 1018.3
20220701144521 82 149 1.0 7.0 0.00 0.00 0.00 64 1018.4
20220701143027 82 184 1.0 5.0 0.00 0.00 0.00 60 1018.4
20220701141516 81 146 1.0 4.0 0.00 0.00 0.00 61 1018.3
20220701140016 80 157 2.0 5.0 0.00 0.00 0.00 60 1018.6
20220701134510 79 160 2.0 8.0 0.00 0.00 0.00 61 1018.7
20220701133007 77 165 2.0 4.0 0.00 0.00 0.00 68 1018.8
20220701131504 76 238 1.0 4.0 0.00 0.00 0.00 69 1019.1
20220701130106 74 245 1.0 4.0 0.00 0.00 0.00 72 1019.1
20220701124559 74 119 1.0 3.0 0.00 0.00 0.00 72 1019.1
20220701123059 75 117 0.0 4.0 0.00 0.00 0.00 72 1019.1
20220701121554 75 125 0.0 4.0 0.00 0.00 0.00 71 1019.1
20220701120050 74 83 1.0 3.0 0.00 0.00 0.00 74 1019.2
20220701114547 72 327 1.0 2.0 0.00 0.00 0.00 74 1019.3
20220701113054 72 345 1.0 2.0 0.00 0.00 0.00 73 1019.4
20220701111544 70 342 0.0 1.0 0.00 0.00 0.00 77 1019.3
20220701110042 68 342 0.0 1.0 0.00 0.00 0.00 80 1019.5
20220701104541 65 342 0.0 2.0 0.00 0.00 0.00 82 1019.4
20220701103041 64 342 1.0 2.0 0.00 0.00 0.00 81 1019.4
20220701101541 64 342 1.0 2.0 0.00 0.00 0.00 82 1019.4
20220701100047 63 342 1.0 2.0 0.00 0.00 0.00 81 1019.3
20220701094541 64 342 0.0 2.0 0.00 0.00 0.00 80 1019.3
20220701093037 63 155 1.0 3.0 0.00 0.00 0.00 80 1019.2
20220701091535 64 336 1.0 2.0 0.00 0.00 0.00 78 1019.2
20220701090035 66 294 1.0 2.0 0.00 0.00 0.00 76 1019.2
20220701084530 66 294 1.0 2.0 0.00 0.00 0.00 75 1019.2
20220701083029 66 294 1.0 3.0 0.00 0.00 0.00 74 1019.3
20220701081530 65 294 1.0 2.0 0.00 0.00 0.00 73 1019.4
20220701080025 65 294 0.0 3.0 0.00 0.00 0.00 72 1019.6
20220701074530 65 294 1.0 2.0 0.00 0.00 0.00 72 1019.9
20220701073020 66 294 0.0 2.0 0.00 0.00 0.00 71 1019.9
20220701071520 66 294 1.0 3.0 0.00 0.00 0.00 70 1020.3
20220701070016 67 287 1.0 2.0 0.00 0.00 0.00 69 1020.5
20220701064513 67 308 0.0 3.0 0.00 0.00 0.00 69 1020.6
20220701063011 67 259 0.0 2.0 0.00 0.00 0.00 69 1020.6
20220701061510 67 259 1.0 3.0 0.00 0.00 0.00 69 1020.7
20220701060007 67 255 0.0 3.0 0.00 0.00 0.00 68 1020.9
20220701054503 68 268 1.0 3.0 0.00 0.00 0.00 67 1020.9
20220701053104 69 248 1.0 3.0 0.00 0.00 0.00 66 1021.0
20220701051558 70 246 0.0 2.0 0.00 0.00 0.00 64 1021.1
20220701050057 70 246 1.0 2.0 0.00 0.00 0.00 64 1021.1
20220701044555 70 246 0.0 2.0 0.00 0.00 0.00 64 1021.1
20220701043052 70 246 0.0 3.0 0.00 0.00 0.00 64 1021.4
20220701041554 70 245 1.0 3.0 0.00 0.00 0.00 63 1021.4
20220701040046 71 245 2.0 4.0 0.00 0.00 0.00 63 1021.5
20220701034546 71 242 1.0 2.0 0.00 0.00 0.00 63 1021.7
20220701033046 71 242 0.0 2.0 0.00 0.00 0.00 63 1021.6
20220701031546 71 242 1.0 3.0 0.00 0.00 0.00 62 1021.7
20220701030056 71 242 1.0 3.0 0.00 0.00 0.00 64 1021.7
20220701024550 71 234 0.0 2.0 0.00 0.00 0.00 62 1021.7
20220701023054 71 240 0.0 2.0 0.00 0.00 0.00 64 1021.5
20220701021543 71 240 1.0 2.0 0.00 0.00 0.00 64 1021.6
20220701020049 72 239 1.0 3.0 0.00 0.00 0.00 65 1021.5
20220701014542 71 177 0.0 3.0 0.00 0.00 0.00 65 1021.4
20220701013042 72 220 0.0 3.0 0.00 0.00 0.00 67 1021.4
20220701011546 72 216 1.0 2.0 0.00 0.00 0.00 67 1021.3
20220701010040 73 216 1.0 3.0 0.00 0.00 0.00 66 1021.3
20220701004541 73 216 1.0 2.0 0.00 0.00 0.00 65 1021.4
20220701003040 74 282 1.0 3.0 0.00 0.00 0.00 65 1021.2
20220701001545 75 282 0.0 3.0 0.00 0.00 0.00 64 1021.3
20220701000044 75 229 0.0 2.0 0.00 0.00 0.00 63 1021.3
20220630234539 76 229 1.0 3.0 0.00 0.00 0.00 64 1021.2
20220630233055 77 217 1.0 4.0 0.00 0.00 0.00 64 1021.1
20220630231539 78 223 1.0 4.0 0.00 0.00 0.00 63 1021.1
20220630230053 78 219 1.0 4.0 0.00 0.00 0.00 62 1021.1
20220630224536 79 273 1.0 6.0 0.00 0.00 0.00 57 1021.1
20220630223035 80 271 2.0 6.0 0.00 0.00 0.00 56 1021.0
20220630221537 81 267 1.0 4.0 0.00 0.00 0.00 58 1021.0
20220630220033 81 221 0.0 3.0 0.00 0.00 0.00 59 1021.0
20220630214533 82 266 2.0 4.0 0.00 0.00 0.00 58 1021.1
20220630213030 81 140 1.0 4.0 0.00 0.00 0.00 59 1021.3
20220630211530 83 117 2.0 7.0 0.00 0.00 0.00 57 1021.4
20220630210034 83 194 1.0 5.0 0.00 0.00 0.00 58 1021.5
20220630204525 83 144 1.0 4.0 0.00 0.00 0.00 55 1021.4
20220630203022 83 268 2.0 5.0 0.00 0.00 0.00 57 1021.5
20220630201526 83 190 2.0 6.0 0.00 0.00 0.00 58 1021.9
20220630200017 83 142 2.0 7.0 0.00 0.00 0.00 53 1022.1
20220630194520 83 215 3.0 7.0 0.00 0.00 0.00 55 1022.2
20220630193014 82 205 3.0 8.0 0.00 0.00 0.00 57 1022.3
20220630191522 83 161 1.0 4.0 0.00 0.00 0.00 53 1022.2
20220630190009 82 194 2.0 5.0 0.00 0.00 0.00 53 1022.4
20220630184507 82 200 4.0 8.0 0.00 0.00 0.00 55 1022.7
20220630183009 82 109 1.0 8.0 0.00 0.00 0.00 60 1023.0
20220630181500 81 194 1.0 6.0 0.00 0.00 0.00 54 1023.1
20220630180102 80 87 2.0 6.0 0.00 0.00 0.00 55 1023.2
20220630174556 79 302 2.0 8.0 0.00 0.00 0.00 54 1023.3
20220630173054 80 62 7.0 11.0 0.00 0.00 0.00 57 1023.7
20220630171552 79 311 2.0 6.0 0.00 0.00 0.00 52 1024.0